User: anonymous   Login
Location: Treviso
(45.6669°N, 12.2430°E)
Time: 05:53:35
(UTC+02:00)
Language:

ITAMSAT 1 - Orbit

View from above orbital plane
View from above orbital plane
View from above satellite
View from above satellite

Ground track
Ground track

The orbit data is extracted from the following two-line orbital elements,

1 22826U 93061D   19111.93239492 -.00000016  00000-0  11851-4 0  9991
2 22826  98.8947  99.2596 0009438 150.0609 210.1114 14.30389450333895
Epoch (UTC): 21 April 2019 22:22:38
Eccentricity: 0.0009438
inclination: 98.8947°
perigee height: 783 km
apogee height: 797 km
right ascension of ascending node: 99.2596°
argument of perigee: 150.0609°
revolutions per day: 14.30389450
mean anomaly at epoch: 210.1114°
orbit number at epoch: 33389

The dashed part of the orbit path shows where the satellite is in the earth's shadow,  

DLR